[[{"header":{"parameterUnit":"m.s-1","parameterCategory":1,"la1":30.2991,"la2":30.254,"lo1":-89.0895,"lo2":-89.0444,"dy":0.0017,"dx":0.0017,"nx":28,"ny":28,"refTime":"2025-12-14T09:00:00:Z","depth":0,"parameterNumber":2,"parameterNumberName":"U-component_of_WINDS"},"data":[0,0,0,0,0,0,0,0,0,0,0,0,0,0,0,0,0,0,0,0,0,0,0,0,0,0,0,0,0,0,0,0,0,0,0,0,0,0,0,0,0,0,0,0,0,0,0,0,0,0,0,0,0,0,0,0,0,0,0.7043,0.7043,0,0.7053,0.7053,0.7053,0.7047,0.7047,0.7047,0.7046,0.7058,0.7058,0.7059,0,0,0,0,0,0,0,0,0,0,0,0,0,0.702,0.7021,0.7043,0.7043,0.7043,0.7053,0.7053,0.7053,0.7047,0.7047,0.7047,0.7046,0.7057,0.7058,0.7059,0,0,0,0,0,0,0,0,0,0,0,0,0,0.703,0.7021,0.7043,0.7041,0.7041,0.7053,0.7053,0.7053,0.7047,0.7047,0.7046,0.7046,0.7057,0.7058,0.7059,0.7073,0,0,0.7062,0.7062,0,0,0,0,0,0,0,0,0.703,0.7031,0.7041,0.7041,0.7041,0.7048,0.7049,0.706,0.7047,0.7045,0.7046,0.7046,0.7055,0.7056,0.7059,0.7073,0.7074,0.7062,0.7062,0.7063,0.7063,0,0,0,0,0,0,0,0.7029,0.7031,0.7047,0.7041,0.7041,0.7041,0.7042,0.7051,0.7052,0.7045,0.7045,0.7046,0.7055,0.7058,0.7059,0.7074,0.7062,0.7062,0.7063,0.7063,0.7103,0.7103,0,0,0,0,0,0,0.7028,0.703,0.7046,0.7047,0.7034,0.7041,0.7042,0.7046,0.7052,0.7053,0.7046,0.7046,0.7057,0.7058,0.7059,0.7078,0.7062,0.7063,0.7064,0.7102,0.7103,0.7104,0,0,0,0,0,0,0.7028,0.703,0.7046,0.7038,0.704,0.7042,0.7047,0.7047,0.705,0.7053,0.7053,0.7049,0.7056,0.7058,0.707,0.7078,0.7064,0.7064,0.7102,0.7103,0.7103,0.7114,0,0,0,0,0,0,0.7027,0.7029,0.7034,0.7039,0.7041,0.7056,0.7047,0.7047,0.7051,0.7051,0.7056,0.7056,0.7056,0.7069,0.7071,0.7079,0.7065,0.7101,0.7102,0.7103,0.7113,0.7115,0.7116,0,0,0,0,0,0.7026,0.7036,0.7034,0.7036,0.7047,0.7056,0.7058,0.7057,0.7052,0.7057,0.706,0.7056,0.7077,0.707,0.7072,0.7081,0.7101,0.7102,0.7103,0.7112,0.7114,0.7116,0,0,0,0,0,0,0.7033,0.7037,0.7035,0.7046,0.7051,0.7055,0.7062,0.7059,0.7066,0.7065,0.7064,0.7065,0.7078,0.708,0.7073,0.7096,0.7088,0.709,0.7094,0.7096,0.7098,0.7098,0.7066,0,0,0,0,0,0.7036,0.7042,0.7046,0.7056,0.7058,0.706,0.7064,0.7063,0.7068,0.707,0.7073,0.7078,0.7086,0.7091,0.7098,0.7113,0.7115,0.712,0.7122,0.7123,0.7125,0.7135,0.7138,0.7108,0.7108,0.7108,0,0,0.7041,0.7045,0.7049,0.7057,0.7061,0.7069,0.7061,0.707,0.7076,0.7071,0.7083,0.7085,0.7091,0.7105,0.7111,0.7108,0.7134,0.7125,0.7126,0.7127,0.7137,0.714,0.7142,0.7109,0.7108,0.7108,0,0,0.7057,0.7059,0.7068,0.7072,0.7078,0.7079,0.7081,0.7086,0.7088,0.7099,0.7097,0.7104,0.7117,0.7122,0.7127,0.7145,0.7143,0.7148,0.7158,0.7168,0.717,0.7173,0.7181,0.7184,0.7149,0.7149,0.7149,0,0.7063,0.7075,0.7074,0.7083,0.7087,0.7084,0.7094,0.7098,0.7106,0.7109,0.7105,0.7122,0.7126,0.7142,0.7147,0.715,0.7154,0.7147,0.717,0.7172,0.7174,0.7182,0.7185,0.715,0.715,0.715,0.715,0,0.7084,0.7092,0.7099,0.7107,0.7112,0.7122,0.7123,0.7129,0.7128,0.713,0.7143,0.7148,0.7157,0.716,0.7159,0.7177,0.7174,0.717,0.7162,0.7178,0.7186,0.7189,0.7151,0.7151,0.715,0.715,0,0,0.7103,0.7111,0.7114,0.7118,0.7125,0.7131,0.7142,0.715,0.7156,0.7162,0.7171,0.7183,0.718,0.7185,0.7185,0.7193,0.721,0.7188,0.7188,0.7193,0.7232,0.7236,0.724,0.7208,0.7209,0.7209,0.7232,0,0.7119,0.7137,0.7137,0.7154,0.7162,0.716,0.7169,0.7175,0.7177,0.7185,0.7188,0.7197,0.7191,0.7194,0.7203,0.7206,0.7218,0.7204,0.7219,0.722,0.7219,0.7244,0.7248,0.7269,0.7235,0.7236,0.7236,0,0.7141,0.7148,0.7166,0.7173,0.7176,0.7184,0.7194,0.7201,0.7208,0.721,0.7216,0.7215,0.7227,0.7218,0.7236,0.7227,0.7233,0.7236,0.7237,0.7239,0.7229,0.7248,0.7275,0.7279,0.724,0.724,0.724,0,0.7155,0.7169,0.7182,0.7185,0.7193,0.72,0.7203,0.721,0.7216,0.7224,0.7228,0.7238,0.7243,0.7251,0.7254,0.7247,0.7272,0.7263,0.7275,0.7275,0.7281,0.7281,0.7311,0.7282,0.7282,0.7282,0.7282,0,0.7174,0.7186,0.7188,0.7196,0.721,0.721,0.7224,0.7227,0.7233,0.7243,0.7241,0.725,0.7252,0.7262,0.7264,0.7279,0.7281,0.7284,0.7285,0.7285,0.7285,0.729,0.7289,0.7283,0.7283,0.7283,0.7283,0,0.7192,0.7194,0.7209,0.7216,0.7218,0.7227,0.7234,0.7242,0.7245,0.7257,0.726,0.7265,0.7277,0.728,0.7294,0.7295,0.7314,0.7312,0.7312,0.7312,0.7324,0.7324,0.736,0.7366,0.7332,0.7332,0.7332,0,0.7205,0.7214,0.7222,0.7228,0.7233,0.7242,0.7249,0.725,0.7257,0.7267,0.7275,0.7286,0.7296,0.7316,0.7321,0.7332,0.7332,0.7344,0.7334,0.7335,0.7334,0.7334,0.7336,0.7346,0.7346,0.7347,0.7347,0,0.7228,0.7229,0.7238,0.7248,0.7256,0.7264,0.7271,0.7277,0.7279,0.7288,0.73,0.7307,0.7323,0.7335,0.7347,0.7352,0.7351,0.735,0.7354,0.7355,0.7355,0.7357,0.7319,0.7349,0.7349,0.7349,0.7349,0.7349,0.7245,0.7253,0.7261,0.7271,0.7278,0.7285,0.7294,0.7298,0.7309,0.7321,0.7321,0.7335,0.7344,0.736,0.7366,0.7378,0.7374,0.7379,0.7381,0.7382,0.7384,0.7352,0.738,0.738,0.738,0.738,0.738,0,0.7269,0.7274,0.7284,0.7295,0.7304,0.7301,0.731,0.7318,0.7331,0.7339,0.7349,0.7364,0.7377,0.7383,0.7396,0.7405,0.7405,0.7408,0.7408,0.741,0.7386,0.7382,0.7408,0.7408,0.7408,0.7408,0.7408,0.7408,0.7282,0.7297,0.73,0.7318,0.7323,0.7337,0.7343,0.7351,0.7357,0.7375,0.7385,0.7389,0.7398,0.7412,0.7424,0.7425,0.7431,0.7435,0.7437,0.7414,0.7411,0.7409,0.7405,0.7436,0.7436,0.7461,0.7461,0.7461]},{"header":{"parameterUnit":"m.s-1","parameterCategory":1,"la1":30.2991,"la2":30.254,"lo1":-89.0895,"lo2":-89.0444,"dy":0.0017,"dx":0.0017,"nx":28,"ny":28,"refTime":"2025-12-14T09:00:00:Z","depth":0,"parameterNumber":3,"parameterNumberName":"V-component_of_WINDS"},"data":[0,0,0,0,0,0,0,0,0,0,0,0,0,0,0,0,0,0,0,0,0,0,0,0,0,0,0,0,0,0,0,0,0,0,0,0,0,0,0,0,0,0,0,0,0,0,0,0,0,0,0,0,0,0,0,0,0,0,-0.7229,-0.7229,0,-0.723,-0.723,-0.723,-0.72,-0.7199,-0.7198,-0.7197,-0.7199,-0.72,-0.7201,0,0,0,0,0,0,0,0,0,0,0,0,0,-0.7203,-0.7204,-0.7229,-0.7229,-0.7229,-0.723,-0.723,-0.723,-0.72,-0.7199,-0.7198,-0.7197,-0.7199,-0.72,-0.7201,0,0,0,0,0,0,0,0,0,0,0,0,0,-0.721,-0.7204,-0.7229,-0.7214,-0.7213,-0.723,-0.723,-0.723,-0.72,-0.7199,-0.7198,-0.7196,-0.7199,-0.72,-0.7201,-0.7233,0,0,-0.7205,-0.7206,0,0,0,0,0,0,0,0,-0.721,-0.7211,-0.7216,-0.7215,-0.7214,-0.7214,-0.7222,-0.7231,-0.72,-0.7205,-0.7197,-0.7196,-0.7205,-0.7206,-0.7209,-0.7234,-0.7234,-0.7205,-0.7206,-0.7206,-0.7207,0,0,0,0,0,0,0,-0.7209,-0.7211,-0.723,-0.7217,-0.7215,-0.7208,-0.7208,-0.7223,-0.7212,-0.7204,-0.7202,-0.7203,-0.7204,-0.7208,-0.7209,-0.7234,-0.7205,-0.7206,-0.7207,-0.7207,-0.7285,-0.7286,0,0,0,0,0,0,-0.7211,-0.7211,-0.723,-0.723,-0.7209,-0.7209,-0.7209,-0.7215,-0.7212,-0.721,-0.7204,-0.7201,-0.7206,-0.7207,-0.7209,-0.7246,-0.7206,-0.7208,-0.7208,-0.7284,-0.7285,-0.7287,0,0,0,0,0,0,-0.721,-0.7213,-0.723,-0.722,-0.7221,-0.7211,-0.7218,-0.7216,-0.7219,-0.7211,-0.7209,-0.7209,-0.7205,-0.7207,-0.7227,-0.7246,-0.7208,-0.7209,-0.7282,-0.7284,-0.7286,-0.7321,0,0,0,0,0,0,-0.721,-0.7213,-0.7224,-0.722,-0.7222,-0.7248,-0.7219,-0.7216,-0.7221,-0.7218,-0.7216,-0.7214,-0.7204,-0.7226,-0.7229,-0.7247,-0.721,-0.7281,-0.7283,-0.7285,-0.7318,-0.7324,-0.7329,0,0,0,0,0,-0.7209,-0.7234,-0.7225,-0.7228,-0.7236,-0.7249,-0.725,-0.7238,-0.7222,-0.7234,-0.723,-0.7214,-0.7243,-0.7228,-0.7231,-0.725,-0.7279,-0.7282,-0.7285,-0.7316,-0.7323,-0.7329,0,0,0,0,0,0,-0.7241,-0.7234,-0.7223,-0.7248,-0.725,-0.7244,-0.7259,-0.7246,-0.7252,-0.7249,-0.7234,-0.7234,-0.7257,-0.7255,-0.7239,-0.7281,-0.7259,-0.7262,-0.7281,-0.7287,-0.7293,-0.7292,-0.7211,0,0,0,0,0,-0.7251,-0.7262,-0.7255,-0.7278,-0.7279,-0.7269,-0.7274,-0.7264,-0.7265,-0.7266,-0.7263,-0.7265,-0.7274,-0.7281,-0.7289,-0.7318,-0.7317,-0.7332,-0.7338,-0.7342,-0.7345,-0.7361,-0.7367,-0.7297,-0.7297,-0.7297,0,0,-0.7272,-0.7269,-0.7277,-0.7284,-0.7284,-0.7296,-0.7269,-0.7283,-0.7292,-0.7268,-0.7287,-0.7285,-0.7286,-0.7311,-0.7322,-0.7311,-0.7365,-0.7346,-0.7349,-0.735,-0.7365,-0.7371,-0.7377,-0.7299,-0.7298,-0.7298,0,0,-0.7317,-0.7315,-0.7334,-0.7335,-0.7335,-0.7328,-0.7333,-0.7329,-0.7327,-0.7346,-0.7328,-0.7339,-0.7355,-0.7357,-0.736,-0.7405,-0.7392,-0.7409,-0.7436,-0.7452,-0.7457,-0.7462,-0.7478,-0.7484,-0.7412,-0.7412,-0.7412,0,-0.7343,-0.7359,-0.7346,-0.736,-0.7364,-0.7343,-0.7362,-0.7364,-0.7367,-0.737,-0.7357,-0.7378,-0.7377,-0.7402,-0.7414,-0.7417,-0.7422,-0.7409,-0.7457,-0.7462,-0.7467,-0.7482,-0.7488,-0.7414,-0.7414,-0.7414,-0.7414,0,-0.7391,-0.7403,-0.7419,-0.7422,-0.7427,-0.7444,-0.7434,-0.7441,-0.7431,-0.7426,-0.7446,-0.7444,-0.7452,-0.7458,-0.7448,-0.7482,-0.7474,-0.746,-0.7437,-0.7476,-0.749,-0.7495,-0.7417,-0.7416,-0.7416,-0.7415,0,0,-0.7455,-0.7451,-0.7457,-0.7458,-0.7457,-0.7466,-0.7483,-0.749,-0.7497,-0.75,-0.7513,-0.7528,-0.7515,-0.7518,-0.7509,-0.7522,-0.7559,-0.7506,-0.7506,-0.7516,-0.7595,-0.7606,-0.7613,-0.755,-0.7551,-0.7552,-0.7595,0,-0.7498,-0.7525,-0.7514,-0.7542,-0.7553,-0.7534,-0.7548,-0.7549,-0.7545,-0.7554,-0.7549,-0.756,-0.7541,-0.7543,-0.7556,-0.7552,-0.7574,-0.7548,-0.7562,-0.7563,-0.7562,-0.762,-0.7632,-0.7673,-0.76,-0.7601,-0.7602,0,-0.7551,-0.7556,-0.7586,-0.7583,-0.7587,-0.76,-0.7606,-0.7615,-0.7616,-0.7612,-0.7616,-0.7604,-0.7621,-0.7598,-0.7621,-0.7603,-0.7609,-0.7608,-0.7609,-0.7609,-0.7585,-0.7622,-0.7686,-0.7692,-0.7611,-0.761,-0.7609,0,-0.7595,-0.7609,-0.7629,-0.763,-0.7628,-0.7637,-0.7637,-0.7637,-0.7642,-0.7647,-0.7651,-0.7658,-0.7662,-0.7668,-0.7659,-0.7644,-0.7683,-0.766,-0.768,-0.768,-0.7689,-0.7689,-0.7754,-0.7693,-0.7693,-0.7693,-0.7693,0,-0.7644,-0.7662,-0.7648,-0.766,-0.7681,-0.7668,-0.7689,-0.7686,-0.7686,-0.7698,-0.7682,-0.7693,-0.768,-0.769,-0.7683,-0.7702,-0.7704,-0.7702,-0.77,-0.7703,-0.7704,-0.7706,-0.7703,-0.7694,-0.7694,-0.7694,-0.7693,0,-0.7696,-0.7687,-0.7707,-0.7703,-0.7702,-0.7718,-0.7714,-0.7725,-0.772,-0.7735,-0.7738,-0.773,-0.7741,-0.7732,-0.7743,-0.7738,-0.7764,-0.7758,-0.7764,-0.7762,-0.7783,-0.7781,-0.7852,-0.786,-0.7794,-0.7795,-0.7795,0,-0.7727,-0.7741,-0.7738,-0.7745,-0.7745,-0.7756,-0.7761,-0.7749,-0.7755,-0.7758,-0.7769,-0.7778,-0.7785,-0.7804,-0.78,-0.7808,-0.7802,-0.7826,-0.7803,-0.7806,-0.7802,-0.7801,-0.7803,-0.7831,-0.7832,-0.7832,-0.7833,0,-0.7784,-0.7779,-0.7787,-0.7793,-0.78,-0.7805,-0.7808,-0.7814,-0.7802,-0.781,-0.7821,-0.7827,-0.7838,-0.7848,-0.7855,-0.7854,-0.7842,-0.784,-0.7845,-0.7849,-0.7851,-0.785,-0.7776,-0.7838,-0.7838,-0.7837,-0.7837,-0.7837,-0.7826,-0.7838,-0.7838,-0.7847,-0.7849,-0.7853,-0.7863,-0.7859,-0.7868,-0.7876,-0.7868,-0.7882,-0.7883,-0.7891,-0.7892,-0.7903,-0.7893,-0.79,-0.7902,-0.7904,-0.7907,-0.785,-0.7904,-0.7904,-0.7904,-0.7904,-0.7903,0,-0.7882,-0.7881,-0.789,-0.7895,-0.7903,-0.789,-0.7894,-0.7901,-0.7913,-0.7915,-0.7922,-0.7935,-0.7945,-0.7941,-0.795,-0.7959,-0.7953,-0.7962,-0.7961,-0.7961,-0.7916,-0.791,-0.7966,-0.7966,-0.7966,-0.7966,-0.7966,-0.7966,-0.7912,-0.7931,-0.7926,-0.7946,-0.7945,-0.7958,-0.7961,-0.7964,-0.7966,-0.7981,-0.7989,-0.7986,-0.7986,-0.7995,-0.8003,-0.8002,-0.8006,-0.8016,-0.8013,-0.797,-0.7964,-0.7958,-0.7953,-0.8017,-0.8017,-0.8057,-0.8058,-0.8058]}]]